Вернуться в каталог

STARLINK-37578

АктивенСвязьVLEO
NORAD 69451·PAYLOAD·🇺🇸 United States

Запущен Jun 8, 2026 с Cape Canaveral Space Force Station

Loading…

Ближайшие Пролёты (ближайшие 24 часа)

TLE

СвежийSource: CelesTrak SupGP

Эпоха: Sep 15, 2026, 04:15 UTC

1 69451C 26127J   26258.17756944 -.00022590  00000+0 -66768-3 0  2582
2 69451  53.1590 190.3520 0001279  83.0238  90.3412 15.34390086    12

Отслеживайте STARLINK-37578 в реальном времени с AllMySat

Download on the App Store